Thor Agena Rocket - Orbit

View from above orbital plane
View from above orbital plane
View from above satellite
View from above satellite

Ground track
Ground track

The orbit data is extracted from the following two-line orbital elements,

1 00733U 64002A   13137.80354789  .00000218  00000-0  98936-4 0  9466
2 00733 098.9802 238.3067 0034241 194.1425 312.1709 14.31633636568862
Epoch (UTC): 17 May 2013 19:17:06
Eccentricity: 0.0034241
inclination: 98.9802°
perigee height: 762 km
apogee height: 811 km
right ascension of ascending node: 238.3067°
argument of perigee: 194.1425°
revolutions per day: 14.31633636
mean anomaly at epoch: 312.1709°
orbit number at epoch: 56886

The dashed part of the orbit path shows where the satellite is in the earth's shadow,  

Developed and maintained by Chris Peat, Heavens-Above GmbH. Please read the updated FAQ before sending e-mail. Imprint. DLR